West Palm Beach, FL

1:08 PM EST on December 05, 2019 (GMT -0500)
Palm Beach International

Weather History for KPBI - October, 2019

Change the Weather History Date:

Wednesday, October 16, 2019

  Actual Average Record
Temperature  
Mean Temperature 82 °F 78 °F  
Max Temperature 90 °F 85 °F 93 °F (2009)
Min Temperature 74 °F 72 °F 54 °F (1889)
Degree Days  
Heating Degree Days 0 0  
Month to date heating degree days 0 0  
Since 1 July heating degree days 0 0  
Cooling Degree Days 17 13  
Month to date cooling degree days 265 234  
Year to date cooling degree days 3974 3442  
Growing Degree Days 32 (Base 50)    
Moisture  
Dew Point 70 °F    
Average Humidity 67    
Maximum Humidity 82    
Minimum Humidity 52    
Precipitation  
Precipitation 0.00 in 0.14 in 7.09 in (1910)
Month to date precipitation 4.17 2.90  
Year to date precipitation 52.16 51.97  
Sea Level Pressure  
Sea Level Pressure 29.93 in    
Wind  
Wind Speed 8 mph (SW)    
Max Wind Speed 16 mph    
Max Gust Speed 22 mph    
Visibility 10 miles    
Events      
T = Trace of Precipitation, MM = Missing Value Source: NWS Daily Summary

Daily Weather History Graph

Daily Weather History Graph

Search for Another Location

Airport or City:

Astronomy

Oct. 16, 2019 Rise Set
Actual Time 7:20 AM EDT 6:51 PM EDT
Civil Twilight 6:56 AM EDT 7:14 PM EDT
Nautical Twilight 6:29 AM EDT 7:41 PM EDT
Astronomical Twilight 6:02 AM EDT 8:08 PM EDT
Moon 8:56 PM EDT (10/16) 9:38 AM EDT (10/16)
Length of Visible Light 12h 17m
Length of Day
11h 31m
Waning Gibbous, 93% of the Moon is Illuminated
Oct 16
Waning Gibbous
Oct 21
Last Quarter
Oct 27
New
Nov 4
First Quarter
Nov 12
Full

Hourly Weather History & Observations

Time (EDT) Temp. Heat Index Dew Point Humidity Pressure Visibility Wind Dir Wind Speed Gust Speed Precip Events Conditions
12:53 AM 78.1 °F - 68.0 °F 71% 29.99 in 10.0 mi SE 5.8 mph - N/A   Scattered Clouds
1:53 AM 77.0 °F - 68.0 °F 74% 29.98 in 10.0 mi SSE 4.6 mph - N/A   Partly Cloudy
2:53 AM 75.9 °F - 68.0 °F 76% 29.97 in 10.0 mi SSW 3.5 mph - N/A   Partly Cloudy
3:53 AM 75.0 °F - 69.1 °F 82% 29.95 in 10.0 mi South 3.5 mph - N/A   Partly Cloudy
4:53 AM 75.0 °F - 68.0 °F 79% 29.95 in 10.0 mi South 3.5 mph - N/A   Partly Cloudy
5:53 AM 75.0 °F - 69.1 °F 82% 29.95 in 10.0 mi SSW 3.5 mph - N/A   Partly Cloudy
6:53 AM 75.0 °F - 70.0 °F 84% 29.96 in 10.0 mi SSW 4.6 mph - N/A   Mostly Cloudy
7:53 AM 75.9 °F - 71.1 °F 85% 29.96 in 10.0 mi SSW 4.6 mph - N/A   Mostly Cloudy
8:53 AM 79.0 °F - 72.0 °F 79% 29.98 in 10.0 mi SSW 4.6 mph - N/A   Scattered Clouds
9:53 AM 82.0 °F 86.7 °F 72.0 °F 71% 29.99 in 10.0 mi SW 10.4 mph - N/A   Partly Cloudy
10:53 AM 84.9 °F 90.7 °F 72.0 °F 65% 29.97 in 10.0 mi SSW 9.2 mph - N/A   Scattered Clouds
11:53 AM 86.0 °F 92.2 °F 72.0 °F 63% 29.95 in 10.0 mi SW 12.7 mph 20.7 mph N/A   Scattered Clouds
12:53 PM 86.0 °F 91.5 °F 71.1 °F 61% 29.94 in 10.0 mi WSW 15.0 mph 19.6 mph N/A   Mostly Cloudy
1:53 PM 89.1 °F 95.0 °F 71.1 °F 55% 29.91 in 10.0 mi WSW 12.7 mph - N/A   Scattered Clouds
2:53 PM 88.0 °F 92.9 °F 70.0 °F 55% 29.89 in 10.0 mi West 9.2 mph - N/A   Scattered Clouds
3:53 PM 89.1 °F 94.1 °F 70.0 °F 53% 29.88 in 10.0 mi WSW 9.2 mph - N/A   Mostly Cloudy
4:53 PM 89.1 °F 94.1 °F 70.0 °F 53% 29.87 in 10.0 mi SW 8.1 mph - N/A   Mostly Cloudy
5:53 PM 89.1 °F 95.0 °F 71.1 °F 55% 29.87 in 10.0 mi WSW 6.9 mph - N/A   Scattered Clouds
6:53 PM 86.0 °F 90.1 °F 69.1 °F 57% 29.87 in 10.0 mi WNW 8.1 mph - N/A   Scattered Clouds
7:53 PM 82.9 °F 86.5 °F 69.1 °F 63% 29.88 in 10.0 mi West 5.8 mph - N/A   Scattered Clouds
8:53 PM 82.0 °F 85.9 °F 70.0 °F 67% 29.89 in 10.0 mi West 9.2 mph - N/A   Clear
9:53 PM 81.0 °F 84.4 °F 70.0 °F 69% 29.91 in 10.0 mi West 9.2 mph - N/A   Clear
10:53 PM 80.1 °F 83.2 °F 70.0 °F 71% 29.92 in 10.0 mi West 9.2 mph - N/A   Clear
11:53 PM 79.0 °F - 71.1 °F 77% 29.91 in 10.0 mi WSW 10.4 mph - N/A   Clear